EHI
3 2 0 0 0 0 0 0 0 0 0 0 0 0 0 1 2 2 1 0 0 0 0 0 1 2 2 2 3 3 3 3 3 3 3 3 3 3 3 3 3 3 3
5 3 1 0 0 0 0 0 0 0 0 0 0 0 0 0 1 1 1 0 0 0 0 0 0 1 1 1 2 3 3 3 3 3 3 3 3 3 3 3 3 3 3
6 4 3 2 1 0 0 0 0 0 0 0 0 0 0 0 0 0 0 0 0 0 0 0 0 1 1 0 1 2 3 3 3 3 3 3 3 3 3 3 2 2 1
3 4 4 4 3 1 0 0 0 0 0 0 0 0 0 0 0 0 0 0 0 0 0 0 1 2 1 0 0 1 2 3 3 3 3 4 4 3 3 3 2 1 0
2 2 4 5 4 2 1 0 0 0 0 0 0 0 0 0 0 0 0 0 0 0 0 0 1 2 1 1 0 0 1 3 3 3 4 4 5 4 3 2 1 0 0
1 1 3 5 5 4 1 0 0 0 0 0 0 0 0 0 0 0 0 0 0 0 0 0 1 1 1 1 1 0 1 3 3 4 4 4 4 4 3 2 0 0 0
1 1 2 5 8 7 4 1 1 1 0 0 0 0 0 0 0 0 0 0 0 0 0 0 0 0 1 1 1 1 2 3 4 4 4 3 3 3 2 1 0 0 0
2 2 2 4 7 8 6 4 2 1 0 0 0 0 0 0 0 0 0 0 0 0 0 0 0 0 0 0 0 1 2 3 4 4 3 3 2 2 1 1 0 0 0
1 2 3 3 4 7 8 6 4 2 1 0 0 0 0 0 0 0 0 0 0 0 0 0 0 0 0 0 0 0 1 2 2 2 1 1 1 1 0 0 0 0 1
0 1 2 2 3 5 8 9 6 4 2 1 0 0 0 0 0 0 0 0 0 0 0 0 0 0 0 0 0 0 0 1 1 0 0 0 0 0 0 0 0 0 1
0 0 1 2 3 5 7 9 8 6 4 1 0 0 0 0 0 0 0 0 0 0 0 0 0 0 0 0 0 0 0 0 0 0 0 0 0 0 0 0 0 0 1
0 1 2 2 3 4 7 9 8 6 6 4 2 0 0 0 0 0 0 0 0 0 0 0 0 0 0 0 0 0 0 0 0 0 0 0 0 0 0 0 0 0 0
0 1 2 2 2 3 5 8 8 8 7 5 3 1 0 0 0 0 0 0 0 0 0 0 0 0 0 0 0 0 0 0 0 0 0 0 0 0 0 0 0 0 0
0 0 1 2 1 1 2 5 9 9 7 4 2 1 1 0 0 0 0 0 0 0 0 0 0 0 0 0 0 0 0 0 0 0 0 0 0 0 0 0 0 0 0
0 0 1 2 1 1 1 2 6 8 6 2 1 1 1 0 0 0 0 0 0 0 0 0 0 0 0 0 0 0 0 0 0 0 0 0 0 0 0 0 0 0 0
0 0 1 2 2 1 1 2 4 5 4 2 2 2 1 0 0 0 0 0 0 0 0 0 0 0 0 0 0 0 0 0 0 0 0 0 0 0 0 0 0 0 0
0 0 1 1 1 1 2 3 3 3 3 2 1 1 1 0 0 0 0 0 0 0 0 0 0 0 0 0 0 0 0 0 0 0 0 0 0 0 0 0 0 0 0
0 0 0 0 0 0 1 1 2 1 1 1 0 0 0 0 0 0 0 0 0 0 0 0 0 0 0 0 0 0 0 0 0 0 0 0 0 0 0 0 0 0 0
0 0 0 0 0 0 0 0 0 0 0 0 0 0 0 0 0 0 0 0 0 0 0 0 0 0 0 0 0 0 0 0 0 0 0 0 0 0 0 0 0 0 0
0 0 0 0 0 0 0 0 0 0 0 0 0 0 0 0 0 0 0 0 0 0 0 0 0 0 0 0 0 0 0 0 0 0 0 0 0 0 0 0 0 0 0
0 0 0 0 0 0 0 0 0 0 0 0 0 0 0 0 0 0 0 0 0 0 0 0 0 0 0 0 0 0 0 0 0 0 0 0 0 0 0 0 0 0 0
0 0 0 0 0 0 0 0 0 0 0 0 0 0 0 0 0 0 0 0 0 0 0 0 0 0 0 0 0 0 0 0 0 0 0 0 0 0 0 0 0 0 0
0 0 0 0 0 0 0 0 0 0 0 0 0 0 0 0 0 0 0 0 0 0 0 0 0 0 0 0 0 0 0 0 0 0 0 0 0 0 0 0 0 0 0
0 0 0 0 0 0 0 0 0 0 0 0 0 0 0 0 0 0 0 0 0 0 0 0 0 0 0 0 0 0 0 0 0 0 0 0 0 0 0 0 0 0 0
0 0 0 0 0 0 0 0 0 0 0 0 0 0 0 0 0 0 0 0 0 0 0 0 0 0 1 0 0 0 0 0 0 0 0 0 0 0 0 0 0 0 0
0 0 0 0 0 0 0 0 0 0 0 0 0 0 0 0 0 0 0 0 0 0 0 0 0 0 1 0 0 0 0 0 0 0 0 0 0 0 0 0 0 0 0
Wind_Speed
4 4 4 5 7 7 7 5 8 9 9 7 8 8 6 5 7 7 5 9 9 7 6 6 6 6 5 4 4 4 5 4 5 5 5 6 7 7 7 7 6 5 5
4 3 4 3 4 5 5 6 6 5 4 2 2 3 5 5 6 9 7 7 9 8 6 6 6 6 6 5 5 5 5 4 5 5 5 5 6 6 6 6 5 4 4
4 3 3 3 3 3 4 4 6 4 3 3 2 1 2 4 5 7 9 6 6 7 8 7 6 6 6 6 6 5 5 5 5 5 5 5 5 5 5 5 4 3 2
3 3 3 3 3 2 2 2 2 2 2 2 2 2 2 3 3 4 7 8 7 6 7 8 7 6 6 7 6 7 6 6 5 5 5 5 5 5 5 4 4 3 2
4 3 3 3 3 2 2 2 1 1 1 2 2 3 2 3 4 4 5 7 8 8 7 8 9 7 6 6 7 7 7 7 6 6 6 5 5 5 4 4 3 3 3
4 3 3 4 3 2 2 1 1 1 1 1 2 2 3 3 3 3 4 3 6 8 9 8 6 6 8 7 7 7 7 7 7 7 7 6 5 5 4 4 3 3 3
5 5 4 4 4 4 4 4 2 2 2 1 1 1 1 2 3 3 3 2 3 6 9 10 7 6 5 8 7 7 7 7 7 7 7 6 6 5 4 4 3 3 2
7 7 7 5 5 5 6 5 4 2 2 1 1 1 1 2 2 3 3 4 3 4 6 9 8 9 8 5 7 9 8 7 8 7 7 7 6 5 4 4 3 2 2
6 7 7 6 7 6 6 7 6 6 5 3 3 3 3 3 1 2 2 3 3 3 4 4 6 8 10 7 7 9 9 8 8 8 8 7 6 6 5 4 3 2 2
5 6 6 7 7 6 7 7 7 6 6 5 3 3 2 3 3 2 2 1 2 2 2 2 3 6 8 8 9 12 13 10 9 9 9 8 7 6 5 4 3 3 3
4 4 5 5 6 6 7 8 8 8 7 6 5 3 3 2 2 3 2 1 1 1 1 0 1 2 5 8 8 12 14 12 10 9 9 8 8 7 6 5 4 4 4
3 4 4 4 4 5 7 7 8 9 8 8 6 5 4 4 4 3 3 2 1 1 1 1 1 1 2 5 9 16 15 13 11 9 8 8 8 7 7 6 5 5 5
3 4 3 2 2 3 4 5 6 7 9 9 8 6 5 4 3 4 4 3 2 1 1 1 1 1 1 2 5 16 14 14 12 10 9 8 7 6 6 5 5 5 5
3 4 3 2 1 1 2 2 3 5 6 7 9 8 5 5 4 4 4 4 3 2 2 2 0 0 1 2 5 9 8 13 12 11 10 9 8 7 6 4 4 4 4
4 5 3 2 1 0 1 1 1 2 3 4 4 5 5 4 4 4 3 4 5 5 5 3 1 0 1 2 6 3 4 11 12 11 10 10 9 7 6 5 4 3 3
6 5 5 4 4 3 2 1 1 1 2 2 2 3 3 3 4 4 4 3 3 4 3 3 2 1 1 2 4 2 2 10 12 11 11 10 9 8 7 5 4 4 3
7 7 7 7 6 5 4 3 2 2 2 2 2 3 3 3 3 3 3 3 3 3 3 2 1 2 2 2 2 1 2 4 5 10 10 10 9 8 7 5 5 4 3
8 7 7 7 8 8 6 5 4 3 2 2 2 3 3 3 3 3 3 4 3 3 3 3 2 2 2 3 3 2 2 3 4 8 9 9 8 7 7 6 5 5 4
9 9 9 9 9 9 9 8 5 3 2 2 2 3 3 4 4 3 3 3 3 3 3 3 2 2 1 2 3 2 2 3 5 8 10 10 11 11 9 8 7 7 6
9 10 9 9 9 9 10 10 7 4 3 2 3 3 3 4 4 4 4 4 4 4 3 3 2 2 2 2 3 3 3 3 5 7 9 10 14 15 13 12 11 10 10
10 8 9 9 9 8 10 10 8 6 4 3 3 3 4 5 6 4 4 4 4 3 3 3 2 2 2 3 3 3 5 5 6 6 7 6 7 7 8 10 12 13 13
7 7 8 7 8 9 15 16 12 6 5 4 4 3 4 5 7 8 8 7 5 4 3 2 2 3 3 3 3 4 6 6 4 4 6 7 6 7 6 6 10 14 15
6 7 7 6 6 9 16 17 17 6 4 3 3 2 2 4 5 5 7 7 6 4 2 2 2 2 3 4 5 5 5 5 5 6 7 6 5 7 6 7 13 14 15
5 4 5 5 5 9 17 17 17 5 3 4 4 4 4 4 4 4 5 6 5 4 2 2 2 2 2 3 5 5 7 8 8 5 5 5 4 5 6 6 12 14 13
4 4 4 5 5 8 15 17 15 4 3 4 5 6 5 5 7 7 6 6 6 4 6 8 7 6 7 7 7 7 8 9 7 3 3 5 5 5 4 4 6 11 11
4 3 3 4 5 6 12 16 15 5 5 4 4 5 8 6 6 6 5 6 5 3 4 5 5 5 6 7 8 6 7 8 6 4 3 4 5 4 4 2 2 3 5
Wind_Direction
226 241 229 198 194 194 198 206 211 224 220 209 196 203 186 178 143 130 138 153 153 164 174 176 173 170 167 160 153 145 140 135 131 130 132 137 138 135 135 134 130 126 120
210 227 247 225 214 207 194 199 221 243 217 228 226 188 160 157 145 138 145 155 161 165 172 178 182 180 178 177 170 161 152 149 147 144 141 141 146 146 146 146 146 143 135
207 215 241 244 239 234 221 212 226 234 191 193 236 252 155 160 157 150 149 157 162 172 176 177 177 182 186 182 180 175 166 161 161 156 154 151 153 157 160 161 161 161 164
221 198 225 238 237 242 258 238 269 258 187 178 188 204 188 154 161 152 155 162 163 168 178 181 177 180 187 186 187 182 177 171 166 164 158 156 160 165 170 175 176 182 192
240 210 206 223 236 225 228 231 234 266 242 198 201 194 189 173 176 179 185 181 161 157 162 175 176 176 181 184 182 182 179 175 172 169 164 160 163 168 172 180 189 202 219
243 239 214 209 211 222 241 226 220 259 269 227 230 207 186 181 171 181 203 183 161 161 157 162 166 180 183 181 182 180 178 175 175 174 170 165 165 167 171 181 195 206 217
227 232 232 214 200 196 204 214 206 224 247 281 275 304 259 196 179 183 194 194 191 168 157 165 174 166 172 180 176 177 176 174 173 172 168 164 163 166 171 176 180 186 194
220 227 224 216 204 198 197 204 201 199 216 225 174 166 298 306 257 198 185 192 205 171 169 176 173 166 165 162 179 174 170 169 167 164 160 157 156 157 158 160 161 160 156
236 227 225 219 207 199 198 200 198 195 201 212 199 169 173 207 255 288 220 192 210 197 186 189 180 166 162 163 160 169 165 164 165 163 160 157 154 153 152 152 151 147 139
257 241 233 225 215 205 199 198 196 194 192 206 213 210 198 160 159 221 280 258 238 216 194 191 188 176 158 152 163 168 167 167 171 170 167 163 160 158 156 153 151 151 140
275 265 246 232 220 210 203 200 197 194 198 200 193 189 201 201 188 161 195 263 294 295 331 256 187 158 148 149 154 164 168 169 173 175 174 171 169 168 167 163 164 161 152
294 280 264 247 231 218 211 205 204 199 202 202 198 194 185 177 184 175 176 189 208 288 325 339 16 61 108 140 158 163 168 170 173 176 176 175 174 173 174 172 172 169 163
312 303 289 266 244 233 223 207 205 207 205 203 200 200 198 192 171 171 169 173 173 208 334 337 1 24 64 91 139 161 168 171 175 177 177 177 176 178 179 178 180 178 174
329 329 327 306 272 249 239 212 205 210 202 207 208 198 193 192 180 177 170 159 167 196 216 242 341 38 36 90 147 157 169 177 177 179 179 178 177 177 178 179 184 177 178
352 359 357 356 352 341 264 195 194 204 198 197 198 192 190 184 179 181 172 165 165 184 210 209 193 143 117 113 150 175 167 184 181 180 179 179 179 180 178 171 157 151 153
3 13 19 24 28 35 49 75 113 168 161 162 168 174 178 171 171 170 172 172 173 167 184 188 190 178 148 137 159 184 173 176 179 179 179 178 179 180 177 170 156 146 146
12 22 23 30 34 34 36 44 49 65 96 114 125 147 158 161 160 160 159 162 167 161 174 165 168 166 151 150 137 165 144 157 172 177 174 172 171 171 168 159 148 141 136
14 23 30 32 32 28 23 30 42 54 72 90 105 122 132 133 137 141 154 162 161 162 163 164 163 154 167 167 154 174 169 159 142 157 154 152 149 143 136 128 123 118 114
19 20 30 32 31 28 20 14 18 38 66 89 109 122 128 129 131 133 138 140 141 143 134 141 152 150 145 148 145 157 126 106 117 125 118 111 110 106 102 101 99 97 94
26 21 28 30 27 28 19 8 1 13 36 62 94 102 110 119 126 128 127 128 129 129 131 133 133 137 142 150 140 137 114 102 105 108 99 99 96 90 87 87 88 87 86
30 24 26 28 24 25 16 8 355 5 20 40 74 92 98 112 118 122 127 131 130 130 137 140 147 148 159 155 162 150 131 111 96 108 109 105 97 86 76 76 82 87 86
31 28 25 24 27 21 7 10 5 355 10 29 47 72 103 108 114 110 110 115 126 139 150 151 160 165 175 167 148 141 137 127 110 109 105 92 86 82 73 74 85 89 88
35 30 18 18 27 18 10 6 358 349 13 33 44 56 90 98 98 112 119 110 91 82 120 154 154 167 165 162 150 148 143 125 115 126 110 95 87 85 76 74 85 88 90
29 30 15 14 23 22 13 6 353 3 23 39 38 44 76 85 81 98 107 95 77 53 53 103 113 107 118 140 144 140 124 108 102 108 108 104 102 93 83 71 81 88 89
14 23 21 20 27 23 16 11 2 355 24 49 52 50 65 74 81 95 105 105 96 84 72 85 93 99 97 103 118 119 124 128 126 118 103 107 123 113 98 90 87 91 92
2 13 29 34 38 33 24 19 11 11 17 32 54 66 63 64 71 80 101 110 111 116 114 103 91 90 90 95 112 125 136 138 132 124 133 118 147 138 120 123 145 125 94